Date String (YYYY-MM-DD hh:mm:ss) UTC,Instrument flags,Ambient pressure (hPa),Sample flow (lpm),Bypass flow (lpm),Sample temperature (°C),Ambient temperature (°C),ASC tube jacket temperature (°C),LED temperature (°C),Box temperature (°C),Sample RH (%),Span deviation,Mass concentration (μg/m³),Mass concentration (μg/m³),Mass concentration (μg/m³)
DateTimeUTC,F1_M11,P_M11,Q1_M11,Q2_M11,T1_M11,T2_M11,T3_M11,T4_M11,T5_M11,U1_M11,ZSPAN_M11,X0_M11,X2_M11,X1_M11
2021-11-05 05:00:00,,0824.2,5.00,0.00,29.5,28.6,00.0,38.7,31.2,09.6,0000.0,0001.69,0001.10,0000.90
2021-11-05 05:01:00,,0824.3,5.01,0.00,29.5,28.6,00.0,38.7,31.2,09.5,0000.0,0001.68,0001.07,0000.90
2021-11-05 05:02:00,,0824.3,5.00,0.00,29.5,28.6,00.0,38.7,31.2,09.7,0000.0,0001.67,0001.04,0000.89
2021-11-05 05:03:00,,0824.2,4.99,0.00,29.5,28.6,00.0,38.7,31.2,09.7,0000.0,0001.70,0001.03,0000.88
2021-11-05 05:04:00,,0824.3,4.99,0.00,29.5,28.5,00.0,38.7,31.1,09.7,0000.0,0001.68,0001.02,0000.88
2021-11-05 05:05:00,,0824.3,5.00,0.00,29.4,28.5,00.0,38.7,31.1,09.7,0000.0,0001.63,0001.00,0000.87
2021-11-05 05:06:00,,0824.2,5.00,0.00,29.4,28.5,00.0,38.6,31.1,09.8,0000.0,0001.60,0000.98,0000.86
2021-11-05 05:07:00,,0824.2,5.01,0.00,29.4,28.5,00.0,38.6,31.1,09.7,0000.0,0002.70,0000.97,0000.86
2021-11-05 05:08:00,,0824.2,4.98,0.00,29.4,28.5,00.0,38.6,31.1,09.7,0000.0,0002.76,0000.97,0000.85
2021-11-05 05:09:00,,0824.1,5.00,0.00,29.4,28.4,00.0,38.6,31.0,09.6,0000.0,0002.71,0000.96,0000.84
2021-11-05 05:10:00,,0824.2,5.01,0.00,29.3,28.4,00.0,38.6,31.0,09.6,0000.0,0002.64,0000.94,0000.84
2021-11-05 05:11:00,,0824.2,4.99,0.00,29.3,28.4,00.0,38.6,31.0,09.6,0000.0,0002.56,0000.93,0000.83
2021-11-05 05:12:00,,0824.2,5.01,0.00,29.3,28.4,00.0,38.5,31.0,09.6,0000.0,0002.49,0000.93,0000.84
2021-11-05 05:13:00,,0824.2,5.00,0.00,29.3,28.4,00.0,38.5,31.0,09.6,0000.0,0002.41,0000.91,0000.83
2021-11-05 05:14:00,,0824.2,5.01,0.00,29.3,28.4,00.0,38.5,31.0,09.6,0000.0,0002.39,0000.90,0000.83
2021-11-05 05:15:00,,0824.2,4.99,0.00,29.3,28.4,00.0,38.5,30.9,09.9,0000.0,0002.40,0000.90,0000.82
2021-11-05 05:16:00,,0824.2,4.99,0.00,29.2,28.3,00.0,38.5,31.0,09.9,0000.0,0002.45,0000.90,0000.82
2021-11-05 05:17:00,,0824.2,5.00,0.00,29.2,28.3,00.0,38.4,31.0,10.2,0000.0,0002.54,0000.93,0000.82
2021-11-05 05:18:00,,0824.2,5.00,0.00,29.2,28.3,00.0,38.4,31.0,10.4,0000.0,0001.69,0000.95,0000.83
2021-11-05 05:19:00,,0824.2,5.01,0.00,29.2,28.3,00.0,38.4,31.0,10.5,0000.0,0001.44,0000.96,0000.86
2021-11-05 05:20:00,,0824.2,4.98,0.00,29.2,28.3,00.0,38.4,31.0,10.3,0000.0,0002.39,0000.97,0000.87
2021-11-05 05:21:00,,0824.2,5.00,0.00,29.2,28.3,00.0,38.4,30.9,10.1,0000.0,0003.04,0000.97,0000.87
2021-11-05 05:22:00,,0824.2,5.00,0.00,29.2,28.3,00.0,38.4,30.9,09.8,0000.0,0003.01,0000.98,0000.88
2021-11-05 05:23:00,,0824.2,4.99,0.00,29.2,28.3,00.0,38.4,30.9,09.9,0000.0,0003.05,0001.00,0000.89
2021-11-05 05:24:00,,0824.2,5.00,0.00,29.2,28.3,00.0,38.4,30.9,09.9,0000.0,0003.08,0001.01,0000.90
2021-11-05 05:25:00,,0824.2,5.00,0.00,29.2,28.3,00.0,38.3,30.9,10.0,0000.0,0003.11,0001.04,0000.91
2021-11-05 05:26:00,,0824.3,5.01,0.00,29.2,28.3,00.0,38.3,30.9,10.1,0000.0,0003.26,0001.08,0000.94
2021-11-05 05:27:00,,0824.3,4.99,0.00,29.2,28.3,00.0,38.3,30.9,10.1,0000.0,0003.42,0001.12,0000.96
2021-11-05 05:28:00,,0824.2,5.00,0.00,29.2,28.3,00.0,38.3,30.9,10.2,0000.0,0003.37,0001.13,0000.98
2021-11-05 05:29:00,,0824.3,4.99,0.00,29.2,28.3,00.0,38.3,30.9,10.2,0000.0,0003.37,0001.14,0001.00
2021-11-05 05:30:00,,0824.3,5.01,0.00,29.2,28.3,00.0,38.3,30.9,10.2,0000.0,0003.40,0001.16,0001.01
2021-11-05 05:31:00,,0824.3,5.01,0.00,29.2,28.4,00.0,38.3,31.0,10.3,0000.0,0003.09,0001.22,0001.04
2021-11-05 05:32:00,,0824.3,5.00,0.00,29.2,28.4,00.0,38.3,31.0,10.3,0000.0,0002.08,0001.26,0001.08
2021-11-05 05:33:00,,0824.3,4.99,0.00,29.2,28.4,00.0,38.3,31.0,10.3,0000.0,0002.30,0001.31,0001.12
2021-11-05 05:34:00,,0824.4,5.00,0.00,29.3,28.5,00.0,38.3,31.0,10.3,0000.0,0002.84,0001.36,0001.14
2021-11-05 05:35:00,,0824.3,5.01,0.00,29.3,28.5,00.0,38.3,31.0,10.3,0000.0,0003.38,0001.43,0001.17
2021-11-05 05:36:00,,0824.4,5.01,0.00,29.3,28.5,00.0,38.3,31.1,10.3,0000.0,0006.04,0001.49,0001.19
2021-11-05 05:37:00,,0824.3,4.99,0.00,29.3,28.6,00.0,38.3,31.1,10.2,0000.0,0006.68,0001.51,0001.20
2021-11-05 05:38:00,,0824.3,5.00,0.00,29.3,28.6,00.0,38.3,31.1,10.2,0000.0,0006.65,0001.53,0001.21
2021-11-05 05:39:00,,0824.3,5.00,0.00,29.4,28.6,00.0,38.3,31.1,10.2,0000.0,0006.68,0001.55,0001.22
2021-11-05 05:40:00,,0824.3,4.99,0.00,29.4,28.6,00.0,38.3,31.2,10.1,0000.0,0006.71,0001.57,0001.22
2021-11-05 05:41:00,,0824.3,5.01,0.00,29.4,28.6,00.0,38.3,31.2,10.2,0000.0,0006.91,0001.57,0001.23
2021-11-05 05:42:00,,0824.3,5.00,0.00,29.4,28.6,00.0,38.4,31.2,10.0,0000.0,0007.11,0001.57,0001.22
2021-11-05 05:43:00,,0824.4,5.00,0.00,29.4,28.6,00.0,38.4,31.2,10.0,0000.0,0007.09,0001.56,0001.20
2021-11-05 05:44:00,,0824.3,5.00,0.00,29.4,28.6,00.0,38.4,31.2,10.4,0000.0,0006.86,0001.57,0001.21
2021-11-05 05:45:00,,0824.3,5.01,0.00,29.5,28.6,00.0,38.4,31.2,10.5,0000.0,0006.53,0001.59,0001.23
2021-11-05 05:46:00,,0824.2,4.99,0.00,29.5,28.6,00.0,38.4,31.2,10.5,0000.0,0006.21,0001.59,0001.26
2021-11-05 05:47:00,,0824.2,5.00,0.00,29.4,28.6,00.0,38.4,31.2,09.6,0000.0,0003.32,0001.54,0001.25
2021-11-05 05:48:00,,0824.2,5.00,0.00,29.4,28.6,00.0,38.4,31.2,09.5,0000.0,0002.78,0001.48,0001.21
2021-11-05 05:49:00,,0824.1,5.00,0.00,29.4,28.6,00.0,38.4,31.2,09.5,0000.0,0002.63,0001.44,0001.19
2021-11-05 05:50:00,,0824.1,4.99,0.00,29.4,28.6,00.0,38.4,31.1,09.7,0000.0,0002.61,0001.40,0001.16
2021-11-05 05:51:00,,0824.1,5.00,0.00,29.4,28.5,00.0,38.4,31.1,09.1,0000.0,0002.74,0001.36,0001.12
2021-11-05 05:52:00,,0824.1,5.00,0.00,29.4,28.5,00.0,38.4,31.0,09.9,0000.0,0002.53,0001.30,0001.08
2021-11-05 05:53:00,,0824.1,5.01,0.00,29.4,28.5,00.0,38.4,31.0,09.7,0000.0,0002.50,0001.27,0001.05
2021-11-05 05:54:00,,0824.0,4.99,0.00,29.3,28.5,00.0,38.4,31.0,10.0,0000.0,0003.05,0001.25,0001.03
2021-11-05 05:55:00,,0824.0,5.01,0.00,29.3,28.4,00.0,38.4,31.0,10.0,0000.0,0002.98,0001.20,0000.99
2021-11-05 05:56:00,,0824.0,5.01,0.00,29.3,28.4,00.0,38.4,31.0,09.8,0000.0,0002.82,0001.13,0000.93
2021-11-05 05:57:00,,0824.1,5.00,0.00,29.3,28.4,00.0,38.4,31.0,10.1,0000.0,0002.63,0001.11,0000.88
2021-11-05 05:58:00,,0824.1,5.01,0.00,29.3,28.4,00.0,38.4,30.9,10.1,0000.0,0002.57,0001.06,0000.85
2021-11-05 05:59:00,,0824.1,4.99,0.00,29.3,28.4,00.0,38.4,30.9,10.3,0000.0,0002.56,0001.06,0000.85
